Waarnemingen

Advertentie
Mijn weer
Cardinham, Groot Brittannië (3823): temperatuur & dauwpunt: 09.11.2018 21:00:00 - 15.11.2018 21:00:00 (GMT)Cardinham, Groot Brittannië (3823): temperatuur -20cm & temperatuur -100cm: 09.11.2018 21:00:00 - 15.11.2018 21:00:00 (GMT)Cardinham, Groot Brittannië (3823): windsnelheid & windstoten: 09.11.2018 21:00:00 - 15.11.2018 21:00:00 (GMT)Cardinham, Groot Brittannië (3823): windrichting: 09.11.2018 21:00:00 - 15.11.2018 21:00:00 (GMT)Cardinham, Groot Brittannië (3823): luchtdruk: 09.11.2018 21:00:00 - 15.11.2018 21:00:00 (GMT)Cardinham, Groot Brittannië (3823): zicht: 09.11.2018 21:00:00 - 15.11.2018 21:00:00 (GMT)Cardinham, Groot Brittannië (3823): neerslag: 09.11.2018 21:00:00 - 15.11.2018 21:00:00 (GMT)
Datum & Tijd tt [°C] td [°C] tt -20cm [°C] tt -100cm [°C] ff [km/u] ff [kn] fx [km/u] fx [kn] dd ppp [hPa] vv [km] rr [mm]
15.11.2018 21:00:00 10,7 10,7 - - 13 7 - - ZZO 1019,2 2,6 0,2
15.11.2018 20:00:00 10,8 10,8 - - 16 9 - - Z 1018,7 0,1 0,0
15.11.2018 19:00:00 10,8 10,8 - - 15 8 - - Z 1018,0 0,2 0,0
15.11.2018 18:00:00 11,2 11,2 - - 16 9 - - Z 1017,7 0,1 0,2
15.11.2018 17:00:00 11,3 11,3 - - 15 8 - - Z 1017,6 0,1 0,0
15.11.2018 16:00:00 11,4 11,4 - - 22 12 - - ZZO 1016,9 3,5 0,0
15.11.2018 15:00:00 11,4 11,4 - - 21 11 - - Z 1017,1 1,0 0,2
15.11.2018 14:00:00 11,7 11,7 - - 22 12 - - ZZO 1017,1 0,1 0,0
15.11.2018 13:00:00 11,0 10,7 - - 31 17 - - ZO 1016,9 2,1 0,0
15.11.2018 12:00:00 12,0 11,2 - - 31 17 46 25 ZO 1017,1 10 0,0
15.11.2018 11:00:00 11,7 10,6 - - 29 16 - - ZO 1017,4 12 0,0
15.11.2018 10:00:00 12,0 11,1 - - 28 15 - - ZO 1017,3 10 0,0
15.11.2018 09:00:00 11,2 11,0 10,9 11,7 24 13 - - ZO 1017,5 5 0,0
15.11.2018 08:00:00 10,5 10,4 - - 21 11 - - ZO 1017,3 5 0,0
15.11.2018 07:00:00 10,3 10,2 - - 16 9 - - ZO 1017,0 4,1 0,0
15.11.2018 06:00:00 10,5 10,2 - - 21 11 - - ZO 1017,0 6 0,0
15.11.2018 05:00:00 10,5 10,2 - - 18 10 - - ZO 1017,1 7 0,0
15.11.2018 04:00:00 10,3 9,7 - - 21 11 - - ZZO 1017,1 9 0,0
15.11.2018 03:00:00 10,5 9,7 - - 22 12 - - ZZO 1017,3 12 0,0
15.11.2018 02:00:00 10,9 9,9 - - 21 11 - - Z 1017,6 14 0,0
15.11.2018 01:00:00 11,1 10,2 - - 21 11 - - ZZO 1017,6 15 0,0
15.11.2018 00:00:00 11,1 10,5 - - 24 13 - - ZZO 1017,7 12 0,0
14.11.2018 23:00:00 11,1 10,2 - - 26 14 - - Z 1017,7 16 0,0
14.11.2018 22:00:00 11,1 10,4 - - 24 13 - - ZZO 1017,9 14 0,0
14.11.2018 21:00:00 11,1 10,3 - - 26 14 - - ZZO 1018,0 15 0,0
14.11.2018 20:00:00 11,2 10,1 - - 28 15 - - ZZO 1018,0 16 0,0
14.11.2018 19:00:00 11,0 10,1 - - 28 15 - - ZZO 1018,0 16 0,0
14.11.2018 18:00:00 11,1 10,0 - - 28 15 46 25 ZZO 1017,7 22 0,0
14.11.2018 17:00:00 10,8 9,9 - - 28 15 - - ZZO 1017,5 15 0,0
14.11.2018 16:00:00 11,4 9,9 - - 26 14 - - ZZO 1017,7 20 0,0
14.11.2018 15:00:00 11,6 10,2 - - 28 15 - - Z 1017,9 17 0,0
14.11.2018 14:00:00 11,7 10,2 - - 26 14 55 30 Z 1018,2 20 0,0
14.11.2018 13:00:00 11,9 10,1 - - 34 18 59 32 Z 1018,3 25 0,0
14.11.2018 12:00:00 11,9 9,7 - - 37 20 55 30 ZZO 1018,6 22 0,0
14.11.2018 11:00:00 11,7 10,1 - - 28 15 50 27 Z 1019,3 21 0,0
14.11.2018 10:00:00 11,7 9,6 - - 34 18 50 27 Z 1019,5 24 0,0
14.11.2018 09:00:00 11,4 9,9 10,7 11,7 31 17 50 27 Z 1019,2 17 0,0
14.11.2018 08:00:00 11,1 10,1 - - 29 16 52 28 Z 1019,2 15 0,0
14.11.2018 07:00:00 11,1 10,1 - - 34 18 50 27 Z 1018,9 14 0,0
14.11.2018 06:00:00 11,2 10,1 - - 34 18 63 34 Z 1019,0 13 0,0
14.11.2018 05:00:00 11,3 10,1 - - 35 19 54 29 Z 1019,3 14 0,0
14.11.2018 04:00:00 11,3 10,2 - - 37 20 55 30 Z 1019,5 13 0,0
14.11.2018 03:00:00 11,3 10,0 - - 35 19 52 28 Z 1019,7 13 0,0
14.11.2018 02:00:00 11,2 10,0 - - 37 20 54 29 Z 1020,2 13 0,0
14.11.2018 01:00:00 11,2 9,8 - - 35 19 55 30 Z 1020,7 15 0,0
14.11.2018 00:00:00 11,1 9,9 - - 35 19 55 30 Z 1021,2 15 0,0
13.11.2018 23:00:00 11,2 9,8 - - 34 18 54 29 Z 1021,4 14 0,0
13.11.2018 22:00:00 11,1 9,7 - - 35 19 52 28 Z 1021,6 16 0,0
13.11.2018 21:00:00 11,0 9,8 - - 35 19 48 26 Z 1021,6 15 0,0
13.11.2018 20:00:00 11,1 10,1 - - 31 17 - - Z 1021,9 12 0,0
13.11.2018 19:00:00 11,0 10,0 - - 26 14 - - Z 1022,3 14 0,0
13.11.2018 18:00:00 11,0 9,9 - - 26 14 - - Z 1022,4 15 0,0
13.11.2018 17:00:00 11,1 9,6 - - 31 17 46 25 ZZW 1022,4 19 0,0
13.11.2018 16:00:00 11,0 9,5 - - 28 15 - - ZZW 1022,0 16 0,0
13.11.2018 15:00:00 11,2 8,4 - - 28 15 - - ZZW 1022,1 24 0,0
13.11.2018 14:00:00 11,6 8,1 - - 21 11 - - ZZW 1022,1 26 0,0
13.11.2018 13:00:00 - - - - - - - - - - - 0,0
13.11.2018 12:00:00 - - - - - - - - - - - 0,0
13.11.2018 11:00:00 - - - - - - - - - - - 0,0
13.11.2018 10:00:00 - - - - - - - - - - - 0,0
13.11.2018 09:00:00 - - - - - - - - - - - 0,0
13.11.2018 08:00:00 - - - - - - - - - - - 0,0
13.11.2018 07:00:00 - - - - - - - - - - - 0,0
13.11.2018 06:00:00 - - - - - - - - - - - 0,0
13.11.2018 05:00:00 - - - - - - - - - - - 0,2
13.11.2018 04:00:00 - - - - - - - - - - - 0,0
13.11.2018 03:00:00 - - - - - - - - - - - 0,0
13.11.2018 02:00:00 - - - - - - - - - - - 0,6
13.11.2018 01:00:00 - - - - - - - - - - - 0,0
13.11.2018 00:00:00 - - - - - - - - - - - 0,6
12.11.2018 23:00:00 - - - - - - - - - - - 0,0
12.11.2018 22:00:00 - - - - - - - - - - - 0,0
12.11.2018 21:00:00 - - - - - - - - - - - 0,0
12.11.2018 20:00:00 - - - - - - - - - - - 0,0
12.11.2018 19:00:00 - - - - - - - - - - - 0,0
12.11.2018 18:00:00 - - - - - - - - - - - 2,4
12.11.2018 17:00:00 - - - - - - - - - - - 0,8
12.11.2018 16:00:00 - - - - - - - - - - - 0,8
12.11.2018 15:00:00 - - - - - - - - - - - 0,0
12.11.2018 14:00:00 - - - - - - - - - - - 0,0
12.11.2018 13:00:00 - - - - - - - - - - - 0,0
12.11.2018 12:00:00 - - - - - - - - - - - 0,6
12.11.2018 11:00:00 11,1 8,7 - - 22 12 52 28 ZZW 1006,8 17 0,0
12.11.2018 10:00:00 10,9 8,7 - - 34 18 63 34 ZZW 1006,6 17 0,0
12.11.2018 09:00:00 10,1 8,4 10,7 11,7 28 15 - - ZZW 1006,3 19 0,0
12.11.2018 08:00:00 8,8 7,7 - - 21 11 50 27 ZZW 1005,7 14 0,0
12.11.2018 07:00:00 9,0 8,1 - - 21 11 - - Z 1005,3 11 0,0
12.11.2018 06:00:00 9,1 7,9 - - 18 10 - - ZZW 1004,9 11 0,0
12.11.2018 05:00:00 9,4 8,2 - - 21 11 - - Z 1004,5 13 0,0
12.11.2018 04:00:00 9,3 8,2 - - 18 10 - - Z 1004,2 11 0,0
12.11.2018 03:00:00 9,1 8,0 - - 18 10 - - Z 1004,1 13 0,0
12.11.2018 02:00:00 9,2 8,2 - - 16 9 - - Z 1003,7 12 0,0
12.11.2018 01:00:00 9,8 8,5 - - 22 12 - - ZZW 1003,4 14 0,0
12.11.2018 00:00:00 9,0 8,2 - - 18 10 - - Z 1003,4 12 0,0
11.11.2018 23:00:00 9,1 8,1 - - 21 11 - - Z 1003,1 13 0,0
11.11.2018 22:00:00 9,4 8,0 - - 22 12 - - Z 1002,9 17 0,0
11.11.2018 21:00:00 9,7 8,4 - - 21 11 - - ZZW 1002,4 15 0,0
11.11.2018 20:00:00 9,6 8,4 - - 24 13 - - ZZW 1002,1 13 0,0
11.11.2018 19:00:00 9,5 7,8 - - 22 12 - - ZZW 1001,7 15 0,0
11.11.2018 18:00:00 9,7 7,8 - - 24 13 - - ZZW 1001,2 15 0,0
11.11.2018 17:00:00 9,8 7,7 - - 22 12 48 26 ZZW 1000,1 20 0,0
11.11.2018 16:00:00 10,5 7,8 - - 21 11 - - ZZW 999,9 17 0,0
11.11.2018 15:00:00 11,6 7,2 - - 24 13 - - ZZW 999,1 23 0,0
11.11.2018 14:00:00 12,0 6,2 - - 31 17 - - ZZW 998,9 28 0,0
11.11.2018 13:00:00 12,2 7,3 - - 28 15 - - ZZW 998,3 26 0,0
11.11.2018 12:00:00 - - - - - - - - - - - 0,0
11.11.2018 11:00:00 - - - - - - - - - - - 0,0
11.11.2018 10:00:00 - - - - - - - - - - - 0,0
11.11.2018 09:00:00 - - - - - - - - - - - 0,0
11.11.2018 08:00:00 - - - - - - - - - - - 0,0
11.11.2018 07:00:00 - - - - - - - - - - - 0,2
11.11.2018 06:00:00 - - - - - - - - - - - 0,0
11.11.2018 05:00:00 - - - - - - - - - - - 0,6
11.11.2018 04:00:00 - - - - - - - - - - - 0,2
11.11.2018 03:00:00 - - - - - - - - - - - 1,0
11.11.2018 02:00:00 - - - - - - - - - - - 0,6
11.11.2018 01:00:00 - - - - - - - - - - - 0,0
11.11.2018 00:00:00 - - - - - - - - - - - 0,0
10.11.2018 23:00:00 - - - - - - - - - - - 0,0
10.11.2018 22:00:00 - - - - - - - - - - - 0,0
10.11.2018 21:00:00 - - - - - - - - - - - 0,0
10.11.2018 20:00:00 - - - - - - - - - - - 0,0
10.11.2018 19:00:00 - - - - - - - - - - - 0,0
10.11.2018 18:00:00 - - - - - - - - - - - 0,0
10.11.2018 17:00:00 - - - - - - - - - - - 0,0
10.11.2018 16:00:00 - - - - - - - - - - - 0,0
10.11.2018 15:00:00 - - - - - - - - - - - 0,0
10.11.2018 14:00:00 - - - - - - - - - - - 0,0
10.11.2018 13:00:00 - - - - - - - - - - - 0,0
10.11.2018 12:00:00 - - - - - - - - - - - 0,0
10.11.2018 11:00:00 - - - - - - - - - - - 1,6
10.11.2018 10:00:00 - - - - - - - - - - - 0,2
10.11.2018 09:00:00 - - - - - - - - - - - 0,0
10.11.2018 08:00:00 - - - - - - - - - - - 7,2
10.11.2018 07:00:00 - - - - - - - - - - - 0,2
10.11.2018 06:00:00 - - - - - - - - - - - 0,2
10.11.2018 05:00:00 - - - - - - - - - - - 0,0
10.11.2018 04:00:00 - - - - - - - - - - - 0,0
10.11.2018 03:00:00 - - - - - - - - - - - 0,0
10.11.2018 02:00:00 - - - - - - - - - - - 0,0
10.11.2018 01:00:00 - - - - - - - - - - - 0,0
10.11.2018 00:00:00 - - - - - - - - - - - 0,0
09.11.2018 23:00:00 - - - - - - - - - - - 0,0
09.11.2018 22:00:00 - - - - - - - - - - - 0,0
09.11.2018 21:00:00 - - - - - - - - - - - 0,6

tt = temperatuur
td = dauwpunt
tt -20cm = temperatuur -20cm
tt -100cm = temperatuur -100cm
ff = windsnelheid
fx = windstoten
dd = windrichting
ppp = luchtdruk
vv = zicht
rr = neerslag

Weerstations in de omgeving